Location: Hillern
(53.0557°N, 9.8577°E)
Time: 01:10:32
(UTC+00:00)

COSMOS 2406 - Pass Details

Date: 19 May 2025
Orbit: 845 x 859 km, 71.0° (Epoch: 23 June)

Event Time Altitude Azimuth Distance (km) Brightness Sun altitude
Exits shadow 23:41:07 - 242° (WSW) 2,743 5.5 -16.8°
Reaches altitude 10° 23:41:54 10° 245° (WSW) 2,474 5.3 -16.8°
Maximum altitude 23:47:12 40° 314° (NW) 1,246 4.4 -16.7°
Drops below altitude 10° 23:52:35 10° 24° (NNE) 2,495 6.9 -16.6°
Sets 23:55:13 0° 32° (NNE) 3,437 7.7 -16.5°
